Year,Month,Day,Hour,Minute,Value (Times are PST for temperature in C)
2010,04,10,00,00,2.60
2010,04,10,00,01,2.60
2010,04,10,00,02,2.60
2010,04,10,00,03,2.60
2010,04,10,00,04,2.60
2010,04,10,00,05,2.50
2010,04,10,00,06,2.50
2010,04,10,00,07,2.50
2010,04,10,00,08,2.40
2010,04,10,00,09,2.40
2010,04,10,00,10,2.40
2010,04,10,00,11,2.30
2010,04,10,00,12,2.30
2010,04,10,00,13,2.30
2010,04,10,00,14,2.30
2010,04,10,00,15,2.30
2010,04,10,00,16,2.20
2010,04,10,00,17,2.20
2010,04,10,00,18,2.20
2010,04,10,00,19,2.20
2010,04,10,00,20,2.20
2010,04,10,00,21,2.20
2010,04,10,00,22,2.20
2010,04,10,00,23,2.20
2010,04,10,00,24,2.20
2010,04,10,00,25,2.20
2010,04,10,00,26,2.20
2010,04,10,00,27,2.20
2010,04,10,00,28,2.20
2010,04,10,00,29,2.20
2010,04,10,00,30,2.20
2010,04,10,00,31,2.20
2010,04,10,00,32,2.30
2010,04,10,00,33,2.30
2010,04,10,00,34,2.30
2010,04,10,00,35,2.40
2010,04,10,00,36,2.40
2010,04,10,00,37,2.40
2010,04,10,00,38,2.40
2010,04,10,00,39,2.40
2010,04,10,00,40,2.40
2010,04,10,00,41,2.40
2010,04,10,00,42,2.50
2010,04,10,00,43,2.50
2010,04,10,00,44,2.50
2010,04,10,00,45,2.60
2010,04,10,00,46,2.60
2010,04,10,00,47,2.60
2010,04,10,00,48,2.60
2010,04,10,00,49,2.60
2010,04,10,00,50,2.60
2010,04,10,00,51,2.60
2010,04,10,00,52,2.70
2010,04,10,00,53,2.70
2010,04,10,00,54,2.70
2010,04,10,00,55,2.70
2010,04,10,00,56,2.80
2010,04,10,00,57,2.80
2010,04,10,00,58,2.80
2010,04,10,00,59,2.80
2010,04,10,01,00,2.80
2010,04,10,01,01,2.80
2010,04,10,01,02,2.80
2010,04,10,01,03,2.80
2010,04,10,01,04,2.70
2010,04,10,01,05,2.70
2010,04,10,01,06,2.70
2010,04,10,01,07,2.70
2010,04,10,01,08,2.70
2010,04,10,01,09,2.70
2010,04,10,01,10,2.60
2010,04,10,01,11,2.50
2010,04,10,01,12,2.50
2010,04,10,01,13,2.40
2010,04,10,01,14,2.30
2010,04,10,01,15,2.30
2010,04,10,01,16,2.20
2010,04,10,01,17,2.20
2010,04,10,01,18,2.20
2010,04,10,01,19,2.10
2010,04,10,01,20,2.10
2010,04,10,01,21,2.00
2010,04,10,01,22,2.00
2010,04,10,01,23,2.00
2010,04,10,01,24,1.90
2010,04,10,01,25,1.90
2010,04,10,01,26,1.90
2010,04,10,01,27,1.80
2010,04,10,01,28,1.80
2010,04,10,01,29,1.80
2010,04,10,01,30,1.80
2010,04,10,01,31,1.80
2010,04,10,01,32,1.90
2010,04,10,01,33,1.90
2010,04,10,01,34,2.00
2010,04,10,01,35,2.10
2010,04,10,01,36,2.10
2010,04,10,01,37,2.20
2010,04,10,01,38,2.20
2010,04,10,01,39,2.20
2010,04,10,01,40,2.20
2010,04,10,01,41,2.20
2010,04,10,01,42,2.20
2010,04,10,01,43,2.20
2010,04,10,01,44,2.20
2010,04,10,01,45,2.20
2010,04,10,01,46,2.20
2010,04,10,01,47,2.20
2010,04,10,01,48,2.10
2010,04,10,01,49,2.10
2010,04,10,01,50,2.10
2010,04,10,01,51,2.10
2010,04,10,01,52,2.10
2010,04,10,01,53,2.00
2010,04,10,01,54,2.00
2010,04,10,01,55,2.00
2010,04,10,01,56,1.90
2010,04,10,01,57,1.90
2010,04,10,01,58,1.90
2010,04,10,01,59,1.80
2010,04,10,02,00,1.80
2010,04,10,02,01,1.80
2010,04,10,02,02,1.80
2010,04,10,02,03,1.80
2010,04,10,02,04,1.80
2010,04,10,02,05,1.80
2010,04,10,02,06,1.90
2010,04,10,02,07,1.90
2010,04,10,02,08,1.90
2010,04,10,02,09,2.00
2010,04,10,02,10,2.00
2010,04,10,02,11,2.00
2010,04,10,02,12,2.00
2010,04,10,02,13,2.00
2010,04,10,02,14,2.00
2010,04,10,02,15,2.00
2010,04,10,02,16,2.00
2010,04,10,02,17,2.00
2010,04,10,02,18,2.00
2010,04,10,02,19,2.00
2010,04,10,02,20,2.00
2010,04,10,02,21,2.00
2010,04,10,02,22,2.00
2010,04,10,02,23,2.00
2010,04,10,02,24,1.90
2010,04,10,02,25,1.90
2010,04,10,02,26,1.90
2010,04,10,02,27,1.90
2010,04,10,02,28,1.90
2010,04,10,02,29,1.90
2010,04,10,02,30,1.90
2010,04,10,02,31,1.90
2010,04,10,02,32,1.90
2010,04,10,02,33,1.80
2010,04,10,02,34,1.80
2010,04,10,02,35,1.80
2010,04,10,02,36,1.80
2010,04,10,02,37,1.80
2010,04,10,02,38,1.70
2010,04,10,02,39,1.70
2010,04,10,02,40,1.70
2010,04,10,02,41,1.70
2010,04,10,02,42,1.80
2010,04,10,02,43,1.80
2010,04,10,02,44,1.80
2010,04,10,02,45,1.80
2010,04,10,02,46,1.80
2010,04,10,02,47,1.80
2010,04,10,02,48,1.80
2010,04,10,02,49,1.80
2010,04,10,02,50,1.80
2010,04,10,02,51,1.80
2010,04,10,02,52,1.70
2010,04,10,02,53,1.70
2010,04,10,02,54,1.60
2010,04,10,02,55,1.60
2010,04,10,02,56,1.60
2010,04,10,02,57,1.60
2010,04,10,02,58,1.60
2010,04,10,02,59,1.60
2010,04,10,03,00,1.60
2010,04,10,03,01,1.70
2010,04,10,03,02,1.70
2010,04,10,03,03,1.70
2010,04,10,03,04,1.70
2010,04,10,03,05,1.70
2010,04,10,03,06,1.70
2010,04,10,03,07,1.80
2010,04,10,03,08,1.80
2010,04,10,03,09,1.80
2010,04,10,03,10,1.80
2010,04,10,03,11,1.80
2010,04,10,03,12,1.80
2010,04,10,03,13,1.80
2010,04,10,03,14,1.80
2010,04,10,03,15,1.80
2010,04,10,03,16,1.80
2010,04,10,03,17,1.80
2010,04,10,03,18,1.80
2010,04,10,03,19,1.80
2010,04,10,03,20,1.80
2010,04,10,03,21,1.80
2010,04,10,03,22,1.70
2010,04,10,03,23,1.70
2010,04,10,03,24,1.80
2010,04,10,03,25,1.80
2010,04,10,03,26,1.80
2010,04,10,03,27,1.80
2010,04,10,03,28,1.90
2010,04,10,03,29,1.90
2010,04,10,03,30,2.00
2010,04,10,03,31,2.00
2010,04,10,03,32,2.10
2010,04,10,03,33,2.20
2010,04,10,03,34,2.30
2010,04,10,03,35,2.40
2010,04,10,03,36,2.40
2010,04,10,03,37,2.50
2010,04,10,03,38,2.50
2010,04,10,03,39,2.50
2010,04,10,03,40,2.50
2010,04,10,03,41,2.60
2010,04,10,03,42,2.60
2010,04,10,03,43,2.60
2010,04,10,03,44,2.60
2010,04,10,03,45,2.50
2010,04,10,03,46,2.50
2010,04,10,03,47,2.50
2010,04,10,03,48,2.50
2010,04,10,03,49,2.60
2010,04,10,03,50,2.60
2010,04,10,03,51,2.60
2010,04,10,03,52,2.60
2010,04,10,03,53,2.60
2010,04,10,03,54,2.50
2010,04,10,03,55,2.50
2010,04,10,03,56,2.50
2010,04,10,03,57,2.40
2010,04,10,03,58,2.30
2010,04,10,03,59,2.30
2010,04,10,04,00,2.20
2010,04,10,04,01,2.20
2010,04,10,04,02,2.20
2010,04,10,04,03,2.20
2010,04,10,04,04,2.10
2010,04,10,04,05,2.10
2010,04,10,04,06,2.00
2010,04,10,04,07,1.90
2010,04,10,04,08,1.90
2010,04,10,04,09,1.90
2010,04,10,04,10,1.80
2010,04,10,04,11,1.80
2010,04,10,04,12,1.80
2010,04,10,04,13,1.70
2010,04,10,04,14,1.70
2010,04,10,04,15,1.70
2010,04,10,04,16,1.70
2010,04,10,04,17,1.70
2010,04,10,04,18,1.70
2010,04,10,04,19,1.70
2010,04,10,04,20,1.60
2010,04,10,04,21,1.70
2010,04,10,04,22,1.70
2010,04,10,04,23,1.70
2010,04,10,04,24,1.80
2010,04,10,04,25,1.80
2010,04,10,04,26,1.80
2010,04,10,04,27,1.80
2010,04,10,04,28,1.90
2010,04,10,04,29,1.90
2010,04,10,04,30,1.90
2010,04,10,04,31,1.90
2010,04,10,04,32,1.90
2010,04,10,04,33,1.90
2010,04,10,04,34,1.90
2010,04,10,04,35,1.90
2010,04,10,04,36,1.90
2010,04,10,04,37,2.00
2010,04,10,04,38,2.00
2010,04,10,04,39,2.00
2010,04,10,04,40,2.10
2010,04,10,04,41,2.20
2010,04,10,04,42,2.20
2010,04,10,04,43,2.20
2010,04,10,04,44,2.20
2010,04,10,04,45,2.30
2010,04,10,04,46,2.30
2010,04,10,04,47,2.30
2010,04,10,04,48,2.30
2010,04,10,04,49,2.30
2010,04,10,04,50,2.30
2010,04,10,04,51,2.30
2010,04,10,04,52,2.40
2010,04,10,04,53,2.40
2010,04,10,04,54,2.50
2010,04,10,04,55,2.50
2010,04,10,04,56,2.50
2010,04,10,04,57,2.50
2010,04,10,04,58,2.50
2010,04,10,04,59,2.50
2010,04,10,05,00,2.50
2010,04,10,05,01,2.50
2010,04,10,05,02,2.50
2010,04,10,05,03,2.50
2010,04,10,05,04,2.60
2010,04,10,05,05,2.60
2010,04,10,05,06,2.60
2010,04,10,05,07,2.70
2010,04,10,05,08,2.70
2010,04,10,05,09,2.70
2010,04,10,05,10,2.70
2010,04,10,05,11,2.70
2010,04,10,05,12,2.70
2010,04,10,05,13,2.70
2010,04,10,05,14,2.70
2010,04,10,05,15,2.70
2010,04,10,05,16,2.70
2010,04,10,05,17,2.70
2010,04,10,05,18,2.70
2010,04,10,05,19,2.70
2010,04,10,05,20,2.70
2010,04,10,05,21,2.70
2010,04,10,05,22,2.70
2010,04,10,05,23,2.70
2010,04,10,05,24,2.70
2010,04,10,05,25,2.70
2010,04,10,05,26,2.70
2010,04,10,05,27,2.70
2010,04,10,05,28,2.70
2010,04,10,05,29,2.70
2010,04,10,05,30,2.70
2010,04,10,05,31,2.70
2010,04,10,05,32,2.70
2010,04,10,05,33,2.70
2010,04,10,05,34,2.70
2010,04,10,05,35,2.70
2010,04,10,05,36,2.70
2010,04,10,05,37,2.60
2010,04,10,05,38,2.60
2010,04,10,05,39,2.60
2010,04,10,05,40,2.60
2010,04,10,05,41,2.60
2010,04,10,05,42,2.60
2010,04,10,05,43,2.50
2010,04,10,05,44,2.50
2010,04,10,05,45,2.50
2010,04,10,05,46,2.50
2010,04,10,05,47,2.50
2010,04,10,05,48,2.50
2010,04,10,05,49,2.50
2010,04,10,05,50,2.50
2010,04,10,05,51,2.50
2010,04,10,05,52,2.50
2010,04,10,05,53,2.40
2010,04,10,05,54,2.40
2010,04,10,05,55,2.30
2010,04,10,05,56,2.30
2010,04,10,05,57,2.30
2010,04,10,05,58,2.30
2010,04,10,05,59,2.30
2010,04,10,06,00,2.30
2010,04,10,06,01,2.30
2010,04,10,06,02,2.20
2010,04,10,06,03,2.20
2010,04,10,06,04,2.20
2010,04,10,06,05,2.20
2010,04,10,06,06,2.20
2010,04,10,06,07,2.20
2010,04,10,06,08,2.20
2010,04,10,06,09,2.20
2010,04,10,06,10,2.20
2010,04,10,06,11,2.20
2010,04,10,06,12,2.20
2010,04,10,06,13,2.20
2010,04,10,06,14,2.20
2010,04,10,06,15,2.20
2010,04,10,06,16,2.20
2010,04,10,06,17,2.20
2010,04,10,06,18,2.20
2010,04,10,06,19,2.20
2010,04,10,06,20,2.20
2010,04,10,06,21,2.20
2010,04,10,06,22,2.20
2010,04,10,06,23,2.20
2010,04,10,06,24,2.20
2010,04,10,06,25,2.20
2010,04,10,06,26,2.20
2010,04,10,06,27,2.20
2010,04,10,06,28,2.20
2010,04,10,06,29,2.20
2010,04,10,06,30,2.20
2010,04,10,06,31,2.20
2010,04,10,06,32,2.20
2010,04,10,06,33,2.20
2010,04,10,06,34,2.20
2010,04,10,06,35,2.20
2010,04,10,06,36,2.20
2010,04,10,06,37,2.20
2010,04,10,06,38,2.20
2010,04,10,06,39,2.20
2010,04,10,06,40,2.20
2010,04,10,06,41,2.20
2010,04,10,06,42,2.20
2010,04,10,06,43,2.20
2010,04,10,06,44,2.20
2010,04,10,06,45,2.20
2010,04,10,06,46,2.20
2010,04,10,06,47,2.20
2010,04,10,06,48,2.20
2010,04,10,06,49,2.20
2010,04,10,06,50,2.20
2010,04,10,06,51,2.20
2010,04,10,06,52,2.30
2010,04,10,06,53,2.30
2010,04,10,06,54,2.30
2010,04,10,06,55,2.30
2010,04,10,06,56,2.30
2010,04,10,06,57,2.40
2010,04,10,06,58,2.40
2010,04,10,06,59,2.40
2010,04,10,07,00,2.40
2010,04,10,07,01,2.40
2010,04,10,07,02,2.40
2010,04,10,07,03,2.40
2010,04,10,07,04,2.40
2010,04,10,07,05,2.40
2010,04,10,07,06,2.40
2010,04,10,07,07,2.50
2010,04,10,07,08,2.50
2010,04,10,07,09,2.50
2010,04,10,07,10,2.50
2010,04,10,07,11,2.60
2010,04,10,07,12,2.60
2010,04,10,07,13,2.60
2010,04,10,07,14,2.60
2010,04,10,07,15,2.70
2010,04,10,07,16,2.70
2010,04,10,07,17,2.70
2010,04,10,07,18,2.70
2010,04,10,07,19,2.70
2010,04,10,07,20,2.70
2010,04,10,07,21,2.70
2010,04,10,07,22,2.70
2010,04,10,07,23,2.80
2010,04,10,07,24,2.80
2010,04,10,07,25,2.80
2010,04,10,07,26,2.80
2010,04,10,07,27,2.80
2010,04,10,07,28,2.80
2010,04,10,07,29,2.80
2010,04,10,07,30,2.80
2010,04,10,07,31,2.80
2010,04,10,07,32,2.80
2010,04,10,07,33,2.90
2010,04,10,07,34,2.90
2010,04,10,07,35,2.90
2010,04,10,07,36,2.90
2010,04,10,07,37,2.90
2010,04,10,07,38,2.90
2010,04,10,07,39,2.90
2010,04,10,07,40,2.90
2010,04,10,07,41,2.90
2010,04,10,07,42,2.90
2010,04,10,07,43,2.90
2010,04,10,07,44,2.90
2010,04,10,07,45,2.90
2010,04,10,07,46,2.90
2010,04,10,07,47,2.90
2010,04,10,07,48,2.90
2010,04,10,07,49,2.90
2010,04,10,07,50,2.90
2010,04,10,07,51,3.00
2010,04,10,07,52,3.10
2010,04,10,07,53,3.10
2010,04,10,07,54,3.10
2010,04,10,07,55,3.10
2010,04,10,07,56,3.20
2010,04,10,07,57,3.20
2010,04,10,07,58,3.20
2010,04,10,07,59,3.30
2010,04,10,08,00,3.30
2010,04,10,08,01,3.30
2010,04,10,08,02,3.30
2010,04,10,08,03,3.40
2010,04,10,08,04,3.40
2010,04,10,08,05,3.40
2010,04,10,08,06,3.50
2010,04,10,08,07,3.50
2010,04,10,08,08,3.50
2010,04,10,08,09,3.60
2010,04,10,08,10,3.60
2010,04,10,08,11,3.60
2010,04,10,08,12,3.70
2010,04,10,08,13,3.70
2010,04,10,08,14,3.70
2010,04,10,08,15,3.80
2010,04,10,08,16,3.80
2010,04,10,08,17,3.80
2010,04,10,08,18,3.80
2010,04,10,08,19,3.90
2010,04,10,08,20,3.90
2010,04,10,08,21,3.90
2010,04,10,08,22,3.90
2010,04,10,08,23,3.90
2010,04,10,08,24,4.00
2010,04,10,08,25,4.00
2010,04,10,08,26,4.00
2010,04,10,08,27,4.00
2010,04,10,08,28,4.00
2010,04,10,08,29,4.10
2010,04,10,08,30,4.10
2010,04,10,08,31,4.10
2010,04,10,08,32,4.10
2010,04,10,08,33,4.20
2010,04,10,08,34,4.20
2010,04,10,08,35,4.20
2010,04,10,08,36,4.20
2010,04,10,08,37,4.20
2010,04,10,08,38,4.30
2010,04,10,08,39,4.30
2010,04,10,08,40,4.40
2010,04,10,08,41,4.40
2010,04,10,08,42,4.40
2010,04,10,08,43,4.50
2010,04,10,08,44,4.50
2010,04,10,08,45,4.50
2010,04,10,08,46,4.50
2010,04,10,08,47,4.60
2010,04,10,08,48,4.60
2010,04,10,08,49,4.60
2010,04,10,08,50,4.60
2010,04,10,08,51,4.60
2010,04,10,08,52,4.60
2010,04,10,08,53,4.60
2010,04,10,08,54,4.60
2010,04,10,08,55,4.60
2010,04,10,08,56,4.60
2010,04,10,08,57,4.60
2010,04,10,08,58,4.60
2010,04,10,08,59,4.60
2010,04,10,09,00,4.70
2010,04,10,09,01,4.70
2010,04,10,09,02,4.70
2010,04,10,09,03,4.80
2010,04,10,09,04,4.90
2010,04,10,09,05,4.90
2010,04,10,09,06,5.00
2010,04,10,09,07,5.10
2010,04,10,09,08,5.10
2010,04,10,09,09,5.10
2010,04,10,09,10,5.10
2010,04,10,09,11,5.10
2010,04,10,09,12,5.20
2010,04,10,09,13,5.30
2010,04,10,09,14,5.30
2010,04,10,09,15,5.30
2010,04,10,09,16,5.30
2010,04,10,09,17,5.30
2010,04,10,09,18,5.30
2010,04,10,09,19,5.40
2010,04,10,09,20,5.40
2010,04,10,09,21,5.40
2010,04,10,09,22,5.40
2010,04,10,09,23,5.50
2010,04,10,09,24,5.50
2010,04,10,09,25,5.60
2010,04,10,09,26,5.60
2010,04,10,09,27,5.60
2010,04,10,09,28,5.70
2010,04,10,09,29,5.70
2010,04,10,09,30,5.70
2010,04,10,09,31,5.70
2010,04,10,09,32,5.70
2010,04,10,09,33,5.80
2010,04,10,09,34,5.70
2010,04,10,09,35,5.70
2010,04,10,09,36,5.70
2010,04,10,09,37,5.70
2010,04,10,09,38,5.80
2010,04,10,09,39,5.90
2010,04,10,09,40,5.90
2010,04,10,09,41,6.00
2010,04,10,09,42,6.00
2010,04,10,09,43,6.00
2010,04,10,09,44,6.00
2010,04,10,09,45,6.10
2010,04,10,09,46,6.10
2010,04,10,09,47,6.20
2010,04,10,09,48,6.20
2010,04,10,09,49,6.20
2010,04,10,09,50,6.20
2010,04,10,09,51,6.20
2010,04,10,09,52,6.30
2010,04,10,09,53,6.30
2010,04,10,09,54,6.30
2010,04,10,09,55,6.30
2010,04,10,09,56,6.40
2010,04,10,09,57,6.40
2010,04,10,09,58,6.40
2010,04,10,09,59,6.30
2010,04,10,10,00,6.30
2010,04,10,10,01,6.30
2010,04,10,10,02,6.30
2010,04,10,10,03,6.30
2010,04,10,10,04,6.30
2010,04,10,10,05,6.30
2010,04,10,10,06,6.40
2010,04,10,10,07,6.40
2010,04,10,10,08,6.40
2010,04,10,10,09,6.50
2010,04,10,10,10,6.60
2010,04,10,10,11,6.60
2010,04,10,10,12,6.60
2010,04,10,10,13,6.70
2010,04,10,10,14,6.80
2010,04,10,10,15,6.80
2010,04,10,10,16,6.90
2010,04,10,10,17,6.90
2010,04,10,10,18,6.90
2010,04,10,10,19,6.80
2010,04,10,10,20,6.80
2010,04,10,10,21,6.90
2010,04,10,10,22,6.90
2010,04,10,10,23,6.90
2010,04,10,10,24,6.90
2010,04,10,10,25,6.90
2010,04,10,10,26,6.90
2010,04,10,10,27,6.90
2010,04,10,10,28,7.00
2010,04,10,10,29,7.00
2010,04,10,10,30,7.00
2010,04,10,10,31,6.90
2010,04,10,10,32,6.80
2010,04,10,10,33,6.80
2010,04,10,10,34,6.90
2010,04,10,10,35,6.90
2010,04,10,10,36,7.00
2010,04,10,10,37,7.00
2010,04,10,10,38,6.90
2010,04,10,10,39,6.90
2010,04,10,10,40,6.90
2010,04,10,10,41,7.00
2010,04,10,10,42,7.00
2010,04,10,10,43,7.10
2010,04,10,10,44,7.20
2010,04,10,10,45,7.30
2010,04,10,10,46,7.30
2010,04,10,10,47,7.30
2010,04,10,10,48,7.30
2010,04,10,10,49,7.40
2010,04,10,10,50,7.40
2010,04,10,10,51,7.30
2010,04,10,10,52,7.30
2010,04,10,10,53,7.20
2010,04,10,10,54,7.20
2010,04,10,10,55,7.30
2010,04,10,10,56,7.30
2010,04,10,10,57,7.30
2010,04,10,10,58,7.30
2010,04,10,10,59,7.40
2010,04,10,11,00,7.40
2010,04,10,11,01,7.40
2010,04,10,11,02,7.40
2010,04,10,11,03,7.30
2010,04,10,11,04,7.30
2010,04,10,11,05,7.30
2010,04,10,11,06,7.30
2010,04,10,11,07,7.30
2010,04,10,11,08,7.40
2010,04,10,11,09,7.40
2010,04,10,11,10,7.40
2010,04,10,11,11,7.30
2010,04,10,11,12,7.30
2010,04,10,11,13,7.30
2010,04,10,11,14,7.30
2010,04,10,11,15,7.30
2010,04,10,11,16,7.30
2010,04,10,11,17,7.30
2010,04,10,11,18,7.40
2010,04,10,11,19,7.50
2010,04,10,11,20,7.60
2010,04,10,11,21,7.70
2010,04,10,11,22,7.80
2010,04,10,11,23,7.70
2010,04,10,11,24,7.60
2010,04,10,11,25,7.50
2010,04,10,11,26,7.50
2010,04,10,11,27,7.50
2010,04,10,11,28,7.40
2010,04,10,11,29,7.40
2010,04,10,11,30,7.40
2010,04,10,11,31,7.50
2010,04,10,11,32,7.50
2010,04,10,11,33,7.60
2010,04,10,11,34,7.60
2010,04,10,11,35,7.60
2010,04,10,11,36,7.70
2010,04,10,11,37,7.60
2010,04,10,11,38,7.60
2010,04,10,11,39,7.60
2010,04,10,11,40,7.60
2010,04,10,11,41,7.60
2010,04,10,11,42,7.60
2010,04,10,11,43,7.70
2010,04,10,11,44,7.70
2010,04,10,11,45,7.80
2010,04,10,11,46,7.80
2010,04,10,11,47,7.80
2010,04,10,11,48,7.80
2010,04,10,11,49,7.80
2010,04,10,11,50,7.80
2010,04,10,11,51,7.90
2010,04,10,11,52,7.90
2010,04,10,11,53,7.90
2010,04,10,11,54,7.90
2010,04,10,11,55,7.90
2010,04,10,11,56,7.90
2010,04,10,11,57,7.90
2010,04,10,11,58,7.80
2010,04,10,11,59,7.80
2010,04,10,12,00,7.80
2010,04,10,12,01,7.70
2010,04,10,12,02,7.70
2010,04,10,12,03,7.70
2010,04,10,12,04,7.80
2010,04,10,12,05,7.80
2010,04,10,12,06,7.80
2010,04,10,12,07,7.90
2010,04,10,12,08,8.00
2010,04,10,12,09,8.00
2010,04,10,12,10,7.90
2010,04,10,12,11,7.90
2010,04,10,12,12,7.90
2010,04,10,12,13,8.00
2010,04,10,12,14,8.00
2010,04,10,12,15,8.10
2010,04,10,12,16,8.20
2010,04,10,12,17,8.20
2010,04,10,12,18,8.20
2010,04,10,12,19,8.10
2010,04,10,12,20,8.10
2010,04,10,12,21,8.20
2010,04,10,12,22,8.20
2010,04,10,12,23,8.40
2010,04,10,12,24,8.40
2010,04,10,12,25,8.40
2010,04,10,12,26,8.40
2010,04,10,12,27,8.40
2010,04,10,12,28,8.40
2010,04,10,12,29,8.50
2010,04,10,12,30,8.50
2010,04,10,12,31,8.50
2010,04,10,12,32,8.50
2010,04,10,12,33,8.60
2010,04,10,12,34,8.60
2010,04,10,12,35,8.70
2010,04,10,12,36,8.70
2010,04,10,12,37,8.70
2010,04,10,12,38,8.60
2010,04,10,12,39,8.60
2010,04,10,12,40,8.60
2010,04,10,12,41,8.70
2010,04,10,12,42,8.70
2010,04,10,12,43,8.70
2010,04,10,12,44,8.70
2010,04,10,12,45,8.80
2010,04,10,12,46,8.90
2010,04,10,12,47,9.00
2010,04,10,12,48,9.00
2010,04,10,12,49,9.10
2010,04,10,12,50,9.00
2010,04,10,12,51,9.00
2010,04,10,12,52,9.00
2010,04,10,12,53,8.90
2010,04,10,12,54,8.80
2010,04,10,12,55,8.80
2010,04,10,12,56,8.80
2010,04,10,12,57,8.90
2010,04,10,12,58,9.00
2010,04,10,12,59,9.10
2010,04,10,13,00,9.10
2010,04,10,13,01,9.10
2010,04,10,13,02,9.10
2010,04,10,13,03,9.10
2010,04,10,13,04,9.00
2010,04,10,13,05,9.00
2010,04,10,13,06,9.00
2010,04,10,13,07,9.00
2010,04,10,13,08,9.00
2010,04,10,13,09,9.10
2010,04,10,13,10,9.20
2010,04,10,13,11,9.20
2010,04,10,13,12,9.20
2010,04,10,13,13,9.20
2010,04,10,13,14,9.30
2010,04,10,13,15,9.30
2010,04,10,13,16,9.40
2010,04,10,13,17,9.60
2010,04,10,13,18,9.60
2010,04,10,13,19,9.60
2010,04,10,13,20,9.60
2010,04,10,13,21,9.50
2010,04,10,13,22,9.50
2010,04,10,13,23,9.50
2010,04,10,13,24,9.50
2010,04,10,13,25,9.50
2010,04,10,13,26,9.60
2010,04,10,13,27,9.70
2010,04,10,13,28,9.70
2010,04,10,13,29,9.70
2010,04,10,13,30,9.70
2010,04,10,13,31,9.70
2010,04,10,13,32,9.70
2010,04,10,13,33,9.80
2010,04,10,13,34,9.90
2010,04,10,13,35,9.80
2010,04,10,13,36,9.70
2010,04,10,13,37,9.70
2010,04,10,13,38,9.70
2010,04,10,13,39,9.70
2010,04,10,13,40,9.70
2010,04,10,13,41,9.80
2010,04,10,13,42,9.80
2010,04,10,13,43,9.80
2010,04,10,13,44,9.80
2010,04,10,13,45,9.90
2010,04,10,13,46,10.00
2010,04,10,13,47,10.10
2010,04,10,13,48,10.20
2010,04,10,13,49,10.20
2010,04,10,13,50,10.20
2010,04,10,13,51,10.10
2010,04,10,13,52,10.10
2010,04,10,13,53,10.10
2010,04,10,13,54,10.10
2010,04,10,13,55,10.10
2010,04,10,13,56,10.20
2010,04,10,13,57,10.20
2010,04,10,13,58,10.10
2010,04,10,13,59,10.10
2010,04,10,14,00,10.00
2010,04,10,14,01,9.90
2010,04,10,14,02,9.90
2010,04,10,14,03,9.90
2010,04,10,14,04,9.90
2010,04,10,14,05,10.00
2010,04,10,14,06,10.00
2010,04,10,14,07,10.00
2010,04,10,14,08,10.10
2010,04,10,14,09,10.10
2010,04,10,14,10,10.10
2010,04,10,14,11,10.20
2010,04,10,14,12,10.20
2010,04,10,14,13,10.10
2010,04,10,14,14,10.10
2010,04,10,14,15,10.20
2010,04,10,14,16,10.30
2010,04,10,14,17,10.40
2010,04,10,14,18,10.40
2010,04,10,14,19,10.40
2010,04,10,14,20,10.40
2010,04,10,14,21,10.50
2010,04,10,14,22,10.60
2010,04,10,14,23,10.60
2010,04,10,14,24,10.60
2010,04,10,14,25,10.60
2010,04,10,14,26,10.60
2010,04,10,14,27,10.60
2010,04,10,14,28,10.60
2010,04,10,14,29,10.60
2010,04,10,14,30,10.50
2010,04,10,14,31,10.40
2010,04,10,14,32,10.40
2010,04,10,14,33,10.50
2010,04,10,14,34,10.50
2010,04,10,14,35,10.50
2010,04,10,14,36,10.60
2010,04,10,14,37,10.60
2010,04,10,14,38,10.60
2010,04,10,14,39,10.70
2010,04,10,14,40,10.80
2010,04,10,14,41,10.90
2010,04,10,14,42,10.90
2010,04,10,14,43,10.90
2010,04,10,14,44,10.90
2010,04,10,14,45,10.90
2010,04,10,14,46,10.80
2010,04,10,14,47,10.70
2010,04,10,14,48,10.60
2010,04,10,14,49,10.50
2010,04,10,14,50,10.40
2010,04,10,14,51,10.40
2010,04,10,14,52,10.50
2010,04,10,14,53,10.60
2010,04,10,14,54,10.70
2010,04,10,14,55,10.80
2010,04,10,14,56,10.80
2010,04,10,14,57,10.80
2010,04,10,14,58,10.80
2010,04,10,14,59,10.80
2010,04,10,15,00,10.80
2010,04,10,15,01,10.90
2010,04,10,15,02,10.90
2010,04,10,15,03,10.90
2010,04,10,15,04,10.90
2010,04,10,15,05,10.80
2010,04,10,15,06,10.80
2010,04,10,15,07,10.80
2010,04,10,15,08,10.90
2010,04,10,15,09,10.90
2010,04,10,15,10,10.80
2010,04,10,15,11,10.80
2010,04,10,15,12,10.80
2010,04,10,15,13,10.70
2010,04,10,15,14,10.60
2010,04,10,15,15,10.60
2010,04,10,15,16,10.60
2010,04,10,15,17,10.60
2010,04,10,15,18,10.60
2010,04,10,15,19,10.70
2010,04,10,15,20,10.70
2010,04,10,15,21,10.70
2010,04,10,15,22,10.80
2010,04,10,15,23,10.80
2010,04,10,15,24,10.90
2010,04,10,15,25,10.90
2010,04,10,15,26,10.90
2010,04,10,15,27,10.90
2010,04,10,15,28,10.90
2010,04,10,15,29,10.90
2010,04,10,15,30,11.00
2010,04,10,15,31,11.10
2010,04,10,15,32,11.10
2010,04,10,15,33,11.20
2010,04,10,15,34,11.30
2010,04,10,15,35,11.30
2010,04,10,15,36,11.40
2010,04,10,15,37,11.40
2010,04,10,15,38,11.30
2010,04,10,15,39,11.30
2010,04,10,15,40,11.20
2010,04,10,15,41,11.30
2010,04,10,15,42,11.20
2010,04,10,15,43,11.20
2010,04,10,15,44,11.20
2010,04,10,15,45,11.20
2010,04,10,15,46,11.20
2010,04,10,15,47,11.20
2010,04,10,15,48,11.20
2010,04,10,15,49,11.20
2010,04,10,15,50,11.10
2010,04,10,15,51,11.10
2010,04,10,15,52,11.10
2010,04,10,15,53,11.10
2010,04,10,15,54,11.00
2010,04,10,15,55,10.90
2010,04,10,15,56,10.90
2010,04,10,15,57,10.90
2010,04,10,15,58,10.90
2010,04,10,15,59,10.90
2010,04,10,16,00,10.90
2010,04,10,16,01,11.00
2010,04,10,16,02,11.10
2010,04,10,16,03,11.10
2010,04,10,16,04,11.10
2010,04,10,16,05,11.20
2010,04,10,16,06,11.20
2010,04,10,16,07,11.30
2010,04,10,16,08,11.30
2010,04,10,16,09,11.20
2010,04,10,16,10,11.20
2010,04,10,16,11,11.10
2010,04,10,16,12,11.10
2010,04,10,16,13,11.10
2010,04,10,16,14,11.20
2010,04,10,16,15,11.20
2010,04,10,16,16,11.20
2010,04,10,16,17,11.30
2010,04,10,16,18,11.30
2010,04,10,16,19,11.30
2010,04,10,16,20,11.40
2010,04,10,16,21,11.40
2010,04,10,16,22,11.60
2010,04,10,16,23,11.60
2010,04,10,16,24,11.60
2010,04,10,16,25,11.50
2010,04,10,16,26,11.40
2010,04,10,16,27,11.40
2010,04,10,16,28,11.40
2010,04,10,16,29,11.40
2010,04,10,16,30,11.40
2010,04,10,16,31,11.40
2010,04,10,16,32,11.40
2010,04,10,16,33,11.40
2010,04,10,16,34,11.50
2010,04,10,16,35,11.60
2010,04,10,16,36,11.60
2010,04,10,16,37,11.60
2010,04,10,16,38,11.60
2010,04,10,16,39,11.60
2010,04,10,16,40,11.60
2010,04,10,16,41,11.60
2010,04,10,16,42,11.60
2010,04,10,16,43,11.60
2010,04,10,16,44,11.70
2010,04,10,16,45,11.70
2010,04,10,16,46,11.60
2010,04,10,16,47,11.60
2010,04,10,16,48,11.60
2010,04,10,16,49,11.60
2010,04,10,16,50,11.60
2010,04,10,16,51,11.60
2010,04,10,16,52,11.60
2010,04,10,16,53,11.60
2010,04,10,16,54,11.60
2010,04,10,16,55,11.60
2010,04,10,16,56,11.60
2010,04,10,16,57,11.60
2010,04,10,16,58,11.60
2010,04,10,16,59,11.60
2010,04,10,17,00,11.60
2010,04,10,17,01,11.60
2010,04,10,17,02,11.60
2010,04,10,17,03,11.70
2010,04,10,17,04,11.70
2010,04,10,17,05,11.70
2010,04,10,17,06,11.70
2010,04,10,17,07,11.80
2010,04,10,17,08,11.80
2010,04,10,17,09,11.80
2010,04,10,17,10,11.80
2010,04,10,17,11,11.80
2010,04,10,17,12,11.90
2010,04,10,17,13,11.90
2010,04,10,17,14,11.90
2010,04,10,17,15,11.80
2010,04,10,17,16,11.80
2010,04,10,17,17,11.80
2010,04,10,17,18,11.80
2010,04,10,17,19,11.80
2010,04,10,17,20,11.70
2010,04,10,17,21,11.70
2010,04,10,17,22,11.70
2010,04,10,17,23,11.80
2010,04,10,17,24,11.80
2010,04,10,17,25,11.80
2010,04,10,17,26,11.80
2010,04,10,17,27,11.80
2010,04,10,17,28,11.80
2010,04,10,17,29,11.90
2010,04,10,17,30,11.90
2010,04,10,17,31,12.00
2010,04,10,17,32,12.00
2010,04,10,17,33,11.90
2010,04,10,17,34,11.90
2010,04,10,17,35,11.90
2010,04,10,17,36,11.80
2010,04,10,17,37,11.80
2010,04,10,17,38,11.80
2010,04,10,17,39,11.90
2010,04,10,17,40,11.90
2010,04,10,17,41,11.90
2010,04,10,17,42,11.90
2010,04,10,17,43,11.90
2010,04,10,17,44,11.90
2010,04,10,17,45,12.00
2010,04,10,17,46,12.00
2010,04,10,17,47,11.90
2010,04,10,17,48,11.80
2010,04,10,17,49,11.80
2010,04,10,17,50,11.80
2010,04,10,17,51,11.80
2010,04,10,17,52,11.70
2010,04,10,17,53,11.70
2010,04,10,17,54,11.60
2010,04,10,17,55,11.60